Location: 相模原市立博物館
(35.5593°N, 139.3931°E)
Time: 05:47:48
(UTC+09:00)

AO-7 - Visible Passes

Search period start: 23 January 2022 00:00
Search period end: 02 February 2022 00:00
Orbit: 1440 x 1459 km, 101.9° (Epoch: 22 January)

Date Brightness Start Highest point End Pass type
(mag) Time Alt. Az. Time Alt. Az. Time Alt. Az.
23 Jan ? 02:16:28 10° ENE 02:20:37 14° E 02:24:44 10° ESE visible
23 Jan ? 04:05:49 10° NNE 04:14:15 86° ESE 04:22:38 10° SSW visible
23 Jan ? 06:00:23 10° NNW 06:05:54 20° NW 06:11:26 10° W visible
24 Jan ? 03:06:35 10° NE 03:14:08 36° E 03:21:37 10° SSE visible
24 Jan ? 04:59:01 10° N 05:06:52 46° WNW 05:14:41 10° SW visible
25 Jan ? 02:10:24 10° ENE 02:13:28 12° E 02:16:30 10° ESE visible
25 Jan ? 03:58:48 10° NNE 04:07:13 79° ESE 04:15:35 10° SSW visible
25 Jan ? 05:53:05 10° N 05:59:01 22° NW 06:04:57 10° WSW visible
26 Jan ? 02:59:44 10° NE 03:07:02 32° E 03:14:16 10° SSE visible
26 Jan ? 04:51:54 10° N 04:59:53 51° WNW 05:07:52 10° SW visible
27 Jan ? 02:05:21 10° E 02:06:18 10° E 02:07:15 10° E visible
27 Jan ? 03:51:48 10° NNE 04:00:11 72° ESE 04:08:31 10° S visible
27 Jan ? 05:45:49 10° N 05:52:06 24° WNW 05:58:24 10° WSW visible
28 Jan ? 02:52:56 10° NE 02:59:56 29° E 03:06:53 10° SSE visible
28 Jan ? 04:44:48 10° N 04:52:55 57° WNW 05:01:00 10° SW visible
29 Jan ? 03:44:48 10° NNE 03:53:08 65° ESE 04:01:24 10° S visible
29 Jan ? 05:38:35 10° N 05:45:11 27° WNW 05:51:48 10° WSW visible
30 Jan ? 02:46:10 10° NE 02:52:50 26° E 02:59:25 10° SSE visible
30 Jan ? 04:37:42 10° N 04:45:55 63° WNW 04:54:07 10° SW visible
31 Jan ? 03:37:50 10° NNE 03:46:05 58° ESE 03:54:16 10° S visible
31 Jan ? 05:31:22 10° N 05:38:16 30° WNW 05:45:10 10° WSW visible
01 Feb ? 02:39:28 10° NE 02:45:43 23° E 02:51:54 10° SE visible
01 Feb ? 04:30:37 10° NNE 04:38:56 69° WNW 04:47:12 10° SSW visible
